This is the latest recevied weather packets stored in our database for station/object DO1SC. If no packets are shown the sender has not sent any weather packets the latest 10 day(s).
| Time | Temp. | Humidity | Pressure | Rain* | Wind** | Luminosity | Snow |
|---|---|---|---|---|---|---|---|
| 1777333524 | 5.56° C | 64% | 1021.7 hPa | - | - | 0 W/m² | - |
| 1777332936 | 6.11° C | 64% | 1021.7 hPa | - | - | 0 W/m² | - |
| 1777332327 | 6.11° C | 64% | 1021.7 hPa | - | - | 0 W/m² | - |
| 1777331719 | 6.11° C | 65% | 1021.8 hPa | - | - | 0 W/m² | - |
| 1777331134 | 6.11° C | 64% | 1021.7 hPa | - | - | 0 W/m² | - |
| 1777330522 | 6.11° C | 64% | 1021.6 hPa | - | - | 0 W/m² | - |
| 1777329934 | 6.11° C | 64% | 1021.7 hPa | - | - | 0 W/m² | - |
| 1777329326 | 6.67° C | 63% | 1021.7 hPa | - | - | 0 W/m² | - |
| 1777328717 | 6.11° C | 63% | 1021.7 hPa | - | - | 0 W/m² | - |
| 1777328132 | 6.11° C | 63% | 1021.8 hPa | - | - | 0 W/m² | - |
| 1777327520 | 6.11° C | 63% | 1021.8 hPa | - | - | 0 W/m² | - |
| 1777326935 | 6.11° C | 63% | 1021.9 hPa | - | - | 0 W/m² | - |
| 1777326324 | 6.11° C | 63% | 1021.8 hPa | - | - | 0 W/m² | - |
| 1777325736 | 6.11° C | 63% | 1021.7 hPa | - | - | 0 W/m² | - |
| 1777325130 | 6.11° C | 62% | 1021.8 hPa | - | - | 0 W/m² | - |
| 1777324519 | 6.67° C | 62% | 1021.8 hPa | - | - | 0 W/m² | - |
| 1777323930 | 6.67° C | 61% | 1021.8 hPa | - | - | 0 W/m² | - |
| 1777323325 | 6.67° C | 61% | 1022 hPa | - | - | 0 W/m² | - |
| 1777322733 | 7.22° C | 60% | 1022 hPa | - | - | 0 W/m² | - |
| 1777322124 | 7.22° C | 59% | 1022 hPa | - | - | 0 W/m² | - |
| 1777321535 | 7.22° C | 59% | 1022 hPa | - | - | 0 W/m² | - |
| 1777320927 | 7.78° C | 58% | 1021.9 hPa | - | - | 0 W/m² | - |
| 1777320319 | 8.33° C | 56% | 1022 hPa | - | - | 0 W/m² | - |
| 1777319734 | 8.33° C | 55% | 1022 hPa | - | - | 0 W/m² | - |
| 1777319122 | 8.33° C | 53% | 1022 hPa | - | - | 0 W/m² | - |
* Rain since midnight (hover to see other rain measurements)
** Current wind speed in m/s (hover to see current wind gust speed)